Location: Scenic
(43.7797°N, 102.5549°W)
Time: 19:52:10
(UTC-07:00)

ISS - Visible Passes

Search period start: 20 November 2017 00:00
Search period end: 30 November 2017 00:00
Orbit: 402 x 407 km, 51.6° (Epoch: 21 November)

Date Brightness Start Highest point End Pass type
(mag) Time Alt. Az. Time Alt. Az. Time Alt. Az.
26 Nov -2.1 18:06:38 10° SSW 18:08:29 23° SSE 18:08:29 23° SSE visible
27 Nov -1.7 17:15:18 10° S 17:17:18 15° SE 17:18:33 13° ESE visible
27 Nov -1.1 18:50:08 10° WSW 18:51:13 19° WSW 18:51:13 19° WSW visible
28 Nov -3.8 17:57:50 10° SW 18:01:04 62° SE 18:01:11 61° SE visible
29 Nov -2.8 17:05:47 10° SSW 17:08:47 33° SE 17:11:05 15° E visible
29 Nov -1.5 18:42:07 10° W 18:43:44 24° WNW 18:43:44 24° WNW visible
